Location: Unspecified
(50.1170°N, 0.0000°E)
Time: 07:52:50
(UTC+00:00)

Cosmos 1666 Rocket - Visible Passes

Search period start: 04 April 2026 00:00
Search period end: 14 April 2026 00:00
Orbit: 596 x 626 km, 82.5° (Epoch: 29 March)

Date Brightness Start Highest point End Pass type
(mag) Time Alt. Az. Time Alt. Az. Time Alt. Az.
4 Apr 3.4 20:21:50 10° S 20:26:08 88° WNW 20:30:27 10° N visible
4 Apr 6.6 22:03:01 10° W 22:04:33 12° WNW 22:06:07 10° NW visible
5 Apr 4.3 20:36:48 10° SSW 20:40:58 52° WNW 20:45:11 10° N visible
6 Apr 4.4 19:14:38 10° SSE 19:18:17 28° E 19:21:58 10° NNE visible
6 Apr 5.3 20:52:03 10° SW 20:55:54 32° WNW 20:59:48 10° N visible
7 Apr 3.8 19:28:52 10° SSE 19:32:57 46° E 19:37:05 10° NNE visible
7 Apr 6.1 21:07:40 10° WSW 21:10:55 21° WNW 21:14:12 10° NNW visible
8 Apr 3.4 19:43:26 10° S 19:47:42 78° E 19:52:01 10° NNE visible
8 Apr 6.6 21:23:50 10° W 21:26:01 14° WNW 21:28:13 10° NNW visible
9 Apr 4.0 19:58:17 10° SSW 20:02:32 63° WNW 20:06:48 10° N visible
10 Apr 5.1 20:13:26 10° SW 20:17:26 38° WNW 20:21:28 10° N visible
11 Apr 7.2 04:40:05 10° NE 04:41:36 12° ENE 04:43:08 10° E visible
11 Apr 6.0 20:28:53 10° WSW 20:32:24 24° WNW 20:35:56 10° NNW visible
12 Apr 6.6 20:44:49 10° WSW 20:47:27 16° WNW 20:50:08 10° NNW visible
13 Apr 3.8 19:19:48 10° SSW 19:24:04 75° W 19:28:23 10° N visible
13 Apr 7.2 21:02:08 10° WNW 21:02:37 10° WNW 21:03:05 10° NW visible
